Regional Weather Roundup
Issued by NWS

Home | Current Version | Previous Version | Text Only | Print | Product List | Glossary Off
Versions: 1 2 3 4 5 6 7 8 9 10 11 12 13 14 15 16 17 18 19 20 21 22 23 24 25 26 27 28 29 30 31 32 33 34 35 36 37 38 39 40 41 42 43 44 45 46 47 48 49 50

006
ASUS43 KLSX 281010
RWRMO

WEATHER SUMMARY FOR MISSOURI
NATIONAL WEATHER SERVICE SPRINGFIELD MO
500 AM CDT SAT MAY 28 2016

NOTE: "FAIR" INDICATES FEW OR NO CLOUDS BELOW 12,000 FEET WITH NO
       SIGNIFICANT WEATHER AND/OR OBSTRUCTIONS TO VISIBILITY.
       CURRENT SKY AND/OR WEATHER CONDITIONS ARE NOT AVAILABLE FOR
       CHILLICOTHE AND FARMINGTON.

MOZ001>031-035>038-043-044-053-054-281100-
...NORTHERN AND WESTERN MISSOURI...

CITY           SKY/WX    TMP DP  RH WIND       PRES   REMARKS
KANSAS CTY INT CLOUDY    59  57  93 S6        29.78R
KANSAS C DTWN  MOCLDY    61  59  93 CALM      29.77R
LEE`S SUMMIT   PTCLDY    59  57  93 SE6       29.79R
ST JOSEPH      MOCLDY    60  58  92 S6        29.76S
CHILLICOTHE      N/A     61  60  97 S5        29.78R
KIRKSVILLE     CLOUDY    64  63  96 S5        29.78R

$$
MOZ066>068-077>081-088>096-101>105-281100-
...SOUTHWEST MISSOURI...

CITY           SKY/WX    TMP DP  RH WIND       PRES   REMARKS
SPRINGFIELD    CLOUDY    63  60  90 SE13      29.84R
JOPLIN         CLEAR     64  60  87 S13       29.82R

$$
MOZ032>034-039>042-045>050-055>058-069>072-281100-
...CENTRAL MISSOURI...

CITY           SKY/WX    TMP DP  RH WIND       PRES   REMARKS
COLUMBIA       PTCLDY    66  65  96 S12       29.81S
JEFFERSON CITY PTCLDY    67  64  90 SE7       29.82R
ROLLA          PTCLDY    64  63  96 S9        29.84S
SEDALIA        PTCLDY    63  59  87 S9        29.80R
WHITEMAN AFB   CLOUDY    60  60  99 S3        29.78R
WARRENSBURG    CLOUDY    55  55 100 CALM      29.79R FOG

$$
MOZ051-052-059>065-281100-
...EAST CENTRAL MISSOURI...

CITY           SKY/WX    TMP DP  RH WIND       PRES   REMARKS
ST LOUIS INTL  MOCLDY    69  64  84 S12       29.88R
SPIRIT OF STL  CLOUDY    68  65  90 S7        29.85S
ST CHARLES     PTCLDY    68  66  93 SE9       29.86R

$$
MOZ072>076-082>087-097>100-106>115-281100-
...SOUTH CENTRAL AND SOUTHEAST MISSOURI...

CITY           SKY/WX    TMP DP  RH WIND       PRES   REMARKS
CAPE GIRARDEAU PTCLDY    68  66  93 SE12      29.92R
FARMINGTON     CLOUDY    66  64  93 S6        29.92R
POPLAR BLUFF   LGT RAIN  68  65  90 SE5       29.90S
WEST PLAINS    CLOUDY    67  63  87 S6        29.90R

$$




USA.gov is the U.S. government's official web portal to all federal, state and local government web resources and services.